timestamp,gas_concentrations,,corrected_fluxes_and_quality_flags,,,,,,,,,,storage_terms,,,turbulence,,,footprint,,
ISOdate,CO2_1_1_1,H2O_1_1_1,Tau_1_1_1,QcTau_1_1_1,H_1_1_1,QcH_1_1_1,LE_1_1_1, QcLE_1_1_1,Fc_1_1_1, QcFc_1_1_1,E_1_1_1, QcE_1_1_1,Sa_1_1_1,Sw_1_1_1,Sc_1_1_1,ustar_1_1_1,MO_length_1_1_1,ZL_1_1_1,Fetchmax_1_1_1,Fetch70_1_1_1,Fetch90_1_1_1
yyyymmddHHMM,[µmol+1mol_a-1],[mmol+1mol_a-1],[kg+1m-1s-2],[#],[W+1m-2],[#],[W+1m-2],[#],[µmol+1s-1m-2],[#],[mmol+1s-1m-2],[#],[W+1m-2],[W+1m-2],[µmol+1s-1m-2],[m+1s-1],[m],[#],[m],[m],[m]
201803180030,417.50080184307501,2.2278414992841582,6.21637361295922578E-003,1,-0.21231051022908037,2,0.34318953301171967,1,0.11431467963208621,2,7.66626710040054209E-003,1,-9999.,-9999.,-9999.,7.26908672437985987E-002,151.43736796514133,0.14263322382208865,700.99952994230512,6393.0000000000000,-9999.
201803180100,417.34290942854079,2.2230318200090249,3.94139016153758071E-002,0,-14.926204560582898,0,0.44302677656353712,0,0.11007397507436001,0,9.88972696324850672E-003,0,-16.475338420028109,-0.17076951174514776,-0.12514393639745539,0.18278772223947870,34.253082170675022,0.63060018635322512,278.89420115146550,2770.0000000000000,-9999.
201803180130,417.10755959682473,2.2435840947665593,1.40536279165231065E-002,0,-7.9221067202535780,0,-0.42950376564740667,0,0.10753000111134364,0,-9.58309467355876118E-003,0,-12.042670474364838,0.73146949783107840,-0.18689127140380621,0.10904479262886006,13.702217245007693,1.5763872090022373,632.23662712617465,6223.0000000000000,-9999.
201803180200,417.07877738597750,2.2474239628582255,2.01894059081388494E-002,0,-6.1188860728214598,1,0.36869687444611809,0,8.60073383511776313E-002,1,8.22462791511874118E-003,0,-5.1468477522803839,0.13681059001390636,-2.28756985052913156E-002,0.13064273000191695,30.508370720485235,0.70800241015481058,428.64674551810316,4497.0000000000000,-9999.
201803180230,417.24662353347867,2.2346047221142147,4.16137544017809655E-002,0,-12.643587348367870,0,0.52839257659740069,0,-5.84510309334709266E-002,0,1.17809080672470964E-002,0,-12.602429681360093,-0.45787449293838867,0.13366496347040940,0.18737553130833440,43.561674177283372,0.49584871123396840,289.06379272721273,2914.0000000000000,-9999.
201803180300,417.23038184802851,2.2395925578297637,4.88166883159785597E-002,0,-26.946178538034001,0,0.23291593876287200,0,8.82325295531325438E-002,0,5.19178779158182245E-003,0,-5.8594287018155020,0.17839998089682160,-1.29488584113781335E-002,0.20282986619902826,25.930113576198735,0.83300830659787983,102.26535079424040,186.97367711264818,280.12063937958635
201803180330,417.48526825186713,2.2782559356424525,0.17553870119649984,0,-72.778721449903614,0,0.73624533281950499,0,0.23419581146585111,0,1.64087713561319459E-002,0,-3.6093208625493025,1.3839657368571534,0.20334135989167332,0.38450149385412241,65.406737053013671,0.33024121020580344,116.00232338012825,212.08924418234770,317.74833550553046
201803180400,417.52691555401560,2.3148637650246098,0.19230113906538523,0,-62.825796849920664,0,-2.97699202651870304E-002,2,0.46118527117662111,0,-6.63080550871880149E-004,2,-14.930660179913311,1.3143970179104358,3.33064295096940216E-002,0.40195223931815138,86.567982618729403,0.24951488236860839,111.41253948926428,203.69765539335614,305.17620635193492
201803180430,417.72931929768890,2.3629224692846766,0.17881904274261712,0,-61.366971220818783,0,0.52183603412418622,0,0.53425855884602802,0,1.16180720649943399E-002,0,-10.654846954667585,1.7291793964351851,0.16213864409776299,0.38728525356541016,79.275173279484150,0.27246865703906231,110.51223675758014,202.05161486300844,302.71013768961780
201803180500,417.83262782079260,2.3714898944156899,0.17120773980950232,0,-55.797203322010333,0,2.1462472348708808,0,0.69651087548109691,0,4.77663173722445988E-002,0,-8.9407495162847770,0.30880454862950935,8.28727088942902701E-002,0.37868908367635967,81.511132525735604,0.26499447781786384,107.38114367696778,196.32697810072949,294.13358865432588
201803180530,418.31754239330314,2.3783470516218639,0.16181713721171492,0,-55.865833176437704,0,1.8994362709733825,1,0.40098956428850041,0,4.22539054363653341E-002,1,-11.336491659705594,0.24772002691624215,0.38969459041129545,0.36782566574857289,74.605866001753839,0.28952147006097656,114.59129231858445,209.50942937657024,313.88330282266827
201803180600,418.41247479646518,2.4018919873019255,0.16485500757486721,0,-59.554311551139222,0,1.7288523618060521,0,0.48603254318035383,0,3.84373197803466876E-002,0,-14.044594416034936,0.85300888147179732,7.64655310264610311E-002,0.37084013758675494,71.725176605135786,0.30114948505338868,110.28239738132194,201.63139517969913,302.08057202996838
201803180630,418.68848491335888,2.4217808847745252,0.16216808939424723,0,-70.172116275318302,0,2.8574802000141832,0,0.52289023006708435,0,6.35203263082210756E-002,0,-3.7405946940221151,0.72117723016563196,0.22247734285463591,0.36767594669806458,59.333132943724422,0.36404617333264555,111.12580786355615,203.17341853320005,304.39080400695781
201803180700,418.96608761569627,2.4364071936571903,0.19671220313562954,0,-61.393714016333838,0,1.6988076492293454,0,0.61095149019904005,0,3.77464619000865351E-002,0,-11.267015403006539,0.53162435887162718,0.22419496911382825,0.40455603093139381,90.351615917004352,0.23906600652102825,109.08344406492222,199.43932613077268,298.79645314739690
201803180730,419.25243202185260,2.4631644548448088,0.20147590113792369,0,-62.011303374545498,0,0.56527800866455480,1,0.54487104106359130,0,1.25596889629305212E-002,1,-0.87058807000520078,0.97288848527065597,0.23132730747065369,0.40936317100375730,92.690688286249312,0.23303311691131726,111.21971763896924,203.34511555364188,304.64803743087316
201803180800,419.35027428813657,2.4734141626908070,0.13213857419981526,0,-46.713522498923062,0,0.94423182604118661,0,0.42290641498715731,0,2.09737559562459264E-002,0,-6.8142670165956245,0.37313234158366049,7.91180338828483681E-002,0.33136564005372360,65.256729701578337,0.33100034431357001,101.69971212016455,185.93950921523515,278.57126741919728
201803180830,419.33615766513276,2.4817319036206098,0.11284351920394328,0,-36.419817597246457,0,-0.10785595773817662,0,5.93945048624369143E-002,0,-2.39518846581495987E-003,0,-5.8368499526139752,0.30307496496940384,-1.14227597593916930E-002,0.30611600591880628,65.976967593686325,0.32738697742251216,114.01593147225115,208.45748624754279,312.30730032624950
201803180900,419.50068456220060,2.4881269247861573,7.19789744576888185E-002,0,-33.882718258838430,0,-1.0046504759719992,0,0.47474088720524477,0,-2.23046195668095901E-002,0,-6.6283405273564036,0.23328734133427578,0.13324960198705160,0.24437495040396975,36.076266824903115,0.59873157344234185,105.73159793929383,193.31108239663180,289.61522732143612
201803180930,419.72177364641902,2.5011602944750413,0.11338710750058181,0,-41.094806338574031,0,-1.1825057220875534,1,0.43697944273967781,0,-2.62399809433586720E-002,1,-12.605769686009328,0.47665032531831086,0.17941995557206702,0.30640761432377062,58.635150207130387,0.36837971632540156,103.66381432044017,189.53051445560692,283.95124763610420
201803181000,419.39395660307258,2.5262357965162701,0.10710860203874506,0,-51.264471702160293,0,-1.3151206686848331,0,0.69311164994711838,0,-2.91827912101949201E-002,0,5.51509251816050816E-002,0.91705527637535067,-0.26603491049661188,0.29780372291302543,43.154608811368220,0.50052591356846954,104.14072408847181,190.40245761413800,285.25757737643028
201803181030,419.19971951975742,2.5604768117823142,0.12722615226832396,0,-50.556666798444162,0,-1.6234887590682994,0,0.42698235017014730,0,-3.60323248725323009E-002,0,4.6925401381699299,1.2511639115102566,-0.15752254595191204,0.32468125913786011,56.710569117324312,0.38088138306835462,114.93449911228365,210.13692085564503,314.82339940224068
201803181100,419.27585971584739,2.5559960656026721,0.12615045330029837,0,-45.578176014241421,0,-1.89501781381243156E-002,0,0.18700556130665591,0,-4.20504265757056536E-004,0,-4.9329995705031022,-0.16390052753503442,6.18017977077579203E-002,0.32316535287621412,62.032384209937355,0.34820522014595989,117.97939087295475,215.70395411257047,323.16382966739422
201803181130,418.76049186734315,2.5670766052043823,9.58518808973300718E-002,0,-41.285163676927787,0,-1.5635006823796664,0,0.61309110314392790,0,-3.46917523841757183E-002,0,-1.6635184817648934,0.40553463582904492,-0.41851644360099893,0.28162912900205977,45.332400316320296,0.47648039480106019,110.02211754107984,201.15552061973918,301.36762522345003
201803181200,418.80670493687285,2.5675906395255930,7.08610694174536815E-002,0,-27.860296292239745,0,-1.2675579893989701,0,0.56937744105500432,0,-2.81206057351063125E-002,0,-4.1035195485213549,1.88338648418170801E-002,3.75637535623818616E-002,0.24203415962889938,42.648935333203944,0.50646047389566407,100.72890013732447,184.16455528600213,275.91206299425301
201803181230,418.78583891072975,2.5691493015629274,0.12856674898077602,0,-47.502447147628608,0,-2.17878495330670607E-002,0,0.67316292664701116,0,-4.83228692099510178E-004,0,-6.8268943851874546,5.71973109923047812E-002,-1.69825048284926866E-002,0.32580545868356847,61.022779033839782,0.35396618020332804,112.49886570664583,205.68380618470653,308.15182216143813
201803181300,418.98624495040701,2.5808047896719062,0.15007748183530928,0,-32.758512428420602,0,-5.40230347464564983E-002,0,0.60977356874067290,0,-1.19816842656565292E-003,0,3.16077441873577891E-002,0.42773701882755100,0.16311581578939391,0.35199874633116174,111.59661119202553,0.19355426450031391,110.62302926977902,202.25417891076742,303.01361554516308
201803181330,419.45539007383394,2.6185964607927406,0.23828357876265105,0,-16.923444474503487,0,0.33220022305858626,1,1.0371575524626646,0,7.37200405116874430E-003,1,14.185519490770831,1.3831530290782259,0.38103685811551485,0.44401358264373053,433.58992560778847,4.98166556100721469E-002,114.18050285020422,208.75837521378992,312.75808682683606
201803181400,419.29609661354164,2.6614106997653231,0.16385178471023362,0,7.2064065323492867,1,2.1557056584524354,0,2.1225466248250897,0,4.78637695245044334E-002,0,13.290997851186455,1.5629250771610190,-0.12911161514679462,0.36857384428386580,-582.42775404593908,-3.70861447620785892E-002,106.00036451746830,193.80247342023836,290.35142061796699
201803181430,419.02000317750787,2.7440871160251477,0.15470106093826969,0,59.060474091177966,0,4.5126156471640151,0,1.2269472528343963,0,0.10028385080438899,0,21.995572620651650,3.0047575776327560,-0.22299058902939853,0.35877388477898553,-65.542831201799515,-0.32955549224744141,91.790069608369535,167.82152218529691,251.42722131884904
201803181500,418.54043135481885,2.7955469869942888,0.38508087366208565,1,150.90200464455509,0,12.202247550397583,0,2.9741821233551580,0,0.27142770816156714,0,23.401281120804164,1.8617240262184511,-0.38593540077280114,0.56707320690132490,-101.29718346250841,-0.21323396427892272,120.86738024702377,220.98411976533768,331.07447998739713
201803181530,417.83685550631770,2.7591994498988028,0.25156719254612908,1,97.413252786924971,0,15.595395585871968,1,1.8491868876828219,1,0.34711245133314195,1,14.703708433781463,-1.3113024168808269,-0.56495335696177440,0.45884585423302016,-83.134470708539297,-0.25982002189834502,112.17030923929508,205.08310017467861,307.25185509544951
201803181600,417.71558215866219,2.7435990505659387,0.25989130360430313,1,133.44798899531355,0,9.0710392502020021,0,1.1694764289605271,0,0.20205654891398117,0,19.315620796248886,-0.56067864870124984,-9.70866584253022441E-002,0.46707663585923176,-64.010506944730722,-0.33744460137849436,109.51015913944536,200.21949738079380,299.96529184574382
201803181630,418.05907191475023,2.7938568420857273,0.58258278605007885,0,210.29461073933038,0,15.293812501826075,0,1.3938828083564641,0,0.34091525875801143,0,17.710624943088245,1.7997971415026137,0.27419821624664859,0.70032059899245003,-136.90972733214301,-0.15776819091603622,120.88200503258354,221.01085853767705,331.11453954080372
201803181700,418.16119306482796,2.8080569548163936,0.33427269657563713,1,280.40788102202583,0,18.219931547025006,0,1.3168594687063209,0,0.40632889852652110,0,11.241546221386177,0.50736438260041183,8.13719738837268280E-002,0.53096456333006925,-44.746368831327239,-0.48272073386383241,97.376824528697711,178.03589198375036,266.73020857880681
201803181730,417.99653716482499,2.8132920623245590,0.39779306924747448,1,249.97652294322819,0,15.003354269170341,0,0.94415277213591153,0,0.33472923718289960,0,9.7626758608936388,0.18665404751472162,-0.13097680365676884,0.57971582087485818,-65.319167284175847,-0.33068394619955288,104.74298780001111,191.50358776099077,286.90727098859952
201803181800,418.08619767308028,2.8286593513980534,0.36843443198300857,1,190.93538688902277,0,17.573868090909610,0,0.54405328554556398,0,0.39213320317514544,0,3.4120397603444674,0.54754016749315948,7.12830337627438637E-002,0.55806395313762902,-76.288710152519513,-0.28313494823567470,102.81555928398252,187.97963371189425,281.62774567454977
201803181830,418.58811102036782,2.8749600520706022,0.28913101147931258,1,132.30859461367766,0,10.255340345980947,0,-0.14755873316341717,0,0.22889401484697655,0,6.6005733031493445,1.6473997453712801,0.39858828954487413,0.49465181130846442,-76.661771139475249,-0.28175712195198122,106.82104817779661,195.30294489494719,292.59940030878221
201803181900,418.89460318169193,2.8637169266337898,0.18216721181428555,0,91.865483393204826,0,13.045099494660555,0,0.58377073680537084,0,0.29109306620216097,0,-5.5874925782503935,-0.40047133533348450,0.24360613226078492,0.39246408508979930,-55.145607699663962,-0.39169030682622480,92.570589984429475,169.24856236694063,253.56518755171916
201803181930,418.51250280520617,2.8921331866215656,0.33209103930854011,0,86.912188963196570,0,14.203051537252760,1,-0.18691368717583323,0,0.31685039827118583,1,-6.2646452033836590,1.0133522826819092,-0.30397900741523570,0.52965989221855592,-143.27051563223159,-0.15076374859602060,116.93178471220303,213.78859593386809,320.29427409174076
201803182000,418.92077744697173,2.9576786327968145,0.30906196469841818,0,88.110594187169056,0,9.5233171928626472,0,-0.38470863379061448,0,0.21243912374790011,0,-1.4755446205813987,2.3377698223462100,0.32483130901223844,0.51094835246129455,-126.85579816717700,-0.17027207515997358,106.24820004915459,194.25559581524962,291.03028053540498
201803182030,418.48195753530086,2.9618754545000421,0.43860255352629968,0,89.845578475613152,0,12.746627450067420,0,1.3223961082639479,0,0.28430235185173602,0,-3.4236093209772687,0.14976251255564152,-0.34926420927224755,0.60856784866599378,-210.17850931358188,-0.10276978398287742,119.39783305750667,218.29731881486325,327.04916256435075
201803182100,417.49520472463519,2.9532782410749987,0.28607495857030707,0,44.631113249600418,0,4.7266523455304847,1,0.66177574675436657,0,0.10539940702524520,1,-5.6464518010256883,-0.30712530058459775,-0.78605107455870826,0.49127574604306218,-222.58203284500587,-9.70428732450344528E-002,120.59524172570704,220.48656375424099,330.32905041619819
201803182130,417.69186186146186,2.9749062487083084,0.21223516047650456,0,37.892582196357445,0,10.847354332789143,1,0.47930195533914755,0,0.24188881045055269,1,0.41763408380976508,0.77252894442789855,0.15663900287616503,0.42317689208392628,-167.55133786670444,-0.12891571189472623,116.03458865989396,212.14823540424260,317.83671510553711
201803182200,417.81741733405636,3.0419673561900322,0.18376410745731683,0,22.230478233202820,0,-1.1638317461930694,2,-0.27092512774202859,0,-2.59482447505711006E-002,2,-4.1640014523267910,2.3975421958586427,0.10008038591605480,0.39362943961627628,-229.87095710814751,-9.39657635385310469E-002,106.07683318691858,193.94228253642470,290.56088015057071
201803182230,418.35185288331189,3.3407078315273671,0.12145088217023775,0,14.561276460070808,0,3.6426604357291095,1,-0.16757900379009538,0,8.11592729601608859E-002,1,-16.802790541553104,10.716857821329150,0.42715766031703745,0.31958939164535488,-187.84468646421124,-0.11498861323455802,90.253583646915970,165.01233581069624,247.21854822891746
201803182300,418.26322109627642,3.5530326953262286,0.15009722867142139,0,13.797560572727111,0,3.5594469994423665,1,-3.32644082011290809E-002,0,7.92380300270265625E-002,1,-20.831625397076248,7.6490924315191249,-7.10803732747114364E-002,0.35470078123471482,-271.05802925604422,-7.96877335059365394E-002,92.705674894125522,169.49554066498726,253.93520604753135
201803182330,417.89181508947775,3.6787659076965213,0.16390763234391237,0,6.0871293577712553,0,4.0021762786356581,1,2.22737398725008640E-002,0,8.90228200663978758E-002,1,-19.647629212586587,4.5475209319982959,-0.29879873384983974,0.37008451766252826,-697.92206429818361,-3.09490143741486777E-002,100.56166690486187,183.85879960075661,275.45398526177451
201803190000,418.18091909183750,3.8925272854074091,0.11001006723576968,0,14.763468693669864,1,2.5695813820460414,1,-0.61755359192944037,1,5.71296485582682353E-002,1,-11.724118231611653,7.7489793455062310,0.23300677184127555,0.30293037038768406,-157.82136982989346,-0.13686359472916371,98.421656993338445,179.94617896133684,269.59216657109482
